This demonstration page uses our WeatherBlox Daily Observations layout. Learn more.

39.92423, -83.80882

Hourly Observations for September 6, 2017

Temp ( °F °C ) Dew Point ( °F °C ) Humidity (%) Winds ( mph kmh ) Pressure ( in mb ) Visibility ( mi km ) Precip ( " mm )
12:56 am 00:56 Clear 51 10.6 49 9.4 92 92 W 3 6 29.91 1013 10 16.09344 0 0
1:56 am 01:56 Clear 50 10 49 9.4 96 96 Calm 29.91 1013 10 16.09344 0 0
2:56 am 02:56 Clear 50 10 48 8.9 93 93 W 5 7 29.91 1013 10 16.09344 0 0
3:56 am 03:56 Clear 48 8.9 47 8.3 96 96 Calm 29.91 1013 10 16.09344 0 0
4:56 am 04:56 Clear 47 8.3 47 8.3 100 100 W 5 7 29.91 1013 9 14.484096 0 0
5:56 am 05:56 Clear 47 8.3 47 8.3 100 100 W 3 6 29.91 1013 10 16.09344 0 0
6:56 am 06:56 Clear 47 8.3 47 8.3 100 100 WNW 3 6 29.91 1013 9 14.484096 0 0
7:56 am 07:56 Sunny with Mist and Fog 49 9.4 48 8.9 97 97 Calm 29.94 1014 4 6.437376 0 0
8:56 am 08:56 Sunny 54 12.2 51 10.6 90 90 WNW 7 11 29.94 1014 10 16.09344 0 0
9:56 am 09:56 Sunny 58 14.4 52 11.1 81 81 NW 7 11 29.97 1015 10 16.09344 0 0
10:56 am 10:56 Sunny 61 16.1 50 10 67 67 WNW 7 11 29.94 1014 10 16.09344 0 0
11:56 am 11:56 Partly Cloudy 63 17.2 48 8.9 58 58 W 12 19 29.94 1014 10 16.09344 0 0
12:56 pm 12:56 Mostly Cloudy 64 17.8 47 8.3 54 54 W 9 15 29.94 1014 10 16.09344 0 0
1:56 pm 13:56 Cloudy 64 17.8 47 8.3 54 54 W 10 17 29.94 1014 10 16.09344 0 0
2:56 pm 14:56 Cloudy 62 16.7 48 8.9 60 60 NNW 7 11 29.94 1014 10 16.09344 0 0
3:56 pm 15:56 Mostly Cloudy 63 17.2 48 8.9 58 58 W 7 11 29.94 1014 10 16.09344 0 0
4:56 pm 16:56 Cloudy 63 17.2 47 8.3 56 56 W 8 13 29.94 1014 10 16.09344 0 0
5:56 pm 17:56 Cloudy with Light Rain 58 14.4 50 10 75 75 N 9 15 29.97 1015 10 16.09344 0.001 0.001
6:56 pm 18:56 Cloudy 58 14.4 49 9.4 72 72 Calm 29.97 1015 10 16.09344 0.001 0.001
7:56 pm 19:56 Mostly Sunny 55 12.8 52 11.1 90 90 W 5 7 29.97 1015 10 16.09344 0 0
8:56 pm 20:56 Cloudy 54 12.2 49 9.4 83 83 W 7 11 29.97 1015 10 16.09344 0 0
9:56 pm 21:56 Clear 52 11.1 48 8.9 86 86 W 7 11 30 1016 10 16.09344 0 0
10:56 pm 22:56 Clear 51 10.6 48 8.9 89 89 W 8 13 30 1016 10 16.09344 0 0
11:56 pm 23:56 Clear 50 10 48 8.9 93 93 WSW 7 11 30 1016 10 16.09344 0 0

Powered by AerisWeather